Flag for U.S.A. Weather past 2 weeks in Wichita Falls, Texas, U.S.A.

Now
64 °F

Passing clouds.


Feels Like: 64 °F
Forecast: 53 / 73 °F
Wind: 13 mph from North

Location: Wichita Falls - Sheppard Air Force Base

Current Time: Apr 19, 2015 at 11:42:46 AM

Latest Report: Apr 19, 2015 at 10:52 AM


Visibility: 10 mi

Pressure: 29.75 "Hg

Humidity: 70%

Dew point: 54 °F

Location of Wichita FallsLocation

Historic Weather in Wichita Falls — Graph

°F

Wichita Falls temperature yesterday

Maximum temperature yesterday: 75 °F (at 2:52 PM)
Minimum temperature yesterday: 57 °F (at 3:52 AM)
Average temperature yesterday: 64 °F

Past Weeks' High & Low Weather Summary

 TemperatureHumidityPressure
High87 °F (Apr 7, 3:52 PM)100% (Apr 15, 6:56 AM)30.43 "Hg (Apr 15, 6:56 AM)
Low42 °F (Apr 10, 6:52 AM)22% (Apr 4, 5:52 PM)29.62 "Hg (Apr 8, 8:52 PM)
Average64 °F76%29.92 "Hg
* Reported Apr 4 9:52 AM — Apr 19 9:52 AM, Wichita Falls, Weather by CustomWeather, © 2015

Note: Actual official high and low records may vary slightly from our data, if they occured in-between our weather recording intervals... More about our weather records

Advertising

Wichita Falls weather history for previous 24 hours

 ConditionsComfort  
Time TempWeatherWind HumidityBarometerVisibility
9:52 AM
Sun, Apr 19
60 °FScattered clouds.16 mph80%29.72 "Hg10 mi
8:52 AM57 °FPartly sunny.No wind87%29.71 "Hg10 mi
7:52 AM53 °FClear.No wind89%29.69 "Hg10 mi
6:52 AM51 °FClear.7 mph92%29.68 "Hg10 mi
5:52 AM51 °FClear.8 mph92%29.68 "Hg10 mi
4:52 AM51 °FClear.7 mph92%29.69 "Hg10 mi
3:52 AM53 °FClear.3 mph89%29.69 "Hg10 mi
2:52 AM55 °FClear.9 mph87%29.70 "Hg10 mi
1:52 AM56 °FClear.12 mph84%29.71 "Hg10 mi
12:52 AM58 °FClear.13 mph78%29.71 "Hg10 mi
11:52 PM
Sat, Apr 18
58 °FClear.8 mph78%29.71 "Hg10 mi
10:52 PM61 °FClear.7 mph70%29.72 "Hg10 mi
9:52 PM61 °FClear.7 mph70%29.70 "Hg10 mi
8:52 PM66 °FSunny.8 mph75%29.70 "Hg10 mi
7:52 PM68 °FThundershowers. Broken clouds.9 mph68%29.71 "Hg10 mi
6:52 PM72 °FSunny.8 mph52%29.70 "Hg10 mi
5:52 PM73 °FSunny.12 mph50%29.71 "Hg10 mi
5:00 PM71 °FLight rain. Overcast.13 mph45%29.77 "Hg10 mi
3:52 PM74 °FPartly sunny.12 mph67%29.75 "Hg10 mi
2:52 PM75 °FBroken clouds.13 mph66%29.79 "Hg10 mi
2:02 PM74 °FScattered clouds.13 mph69%29.84 "Hg10 mi
1:00 PM71 °FScattered clouds.7 mph73%29.88 "Hg10 mi
11:52 AM67 °FScattered clouds.N/A81%29.88 "Hg10 mi
Weather by CustomWeather, © 2015

See weather overviewHow to use our weather pages